owner,sensor,date,latitude,longitude,vertical_datum,sea_water_practical_salinity,qcFlag 
DISL,ioos:station:DISL:BSCA:1,2011-05-01T00:00:00Z,30.3288,-87.8293,1.656,3.54,1111122 
DISL,ioos:station:DISL:BSCA:1,2011-05-01T00:30:00Z,30.3288,-87.8293,1.65,3.56,1111122 
DISL,ioos:station:DISL:BSCA:1,2011-05-01T01:00:00Z,30.3288,-87.8293,1.652,3.57,1111122 
DISL,ioos:station:DISL:BSCA:1,2011-05-01T01:30:00Z,30.3288,-87.8293,1.634,3.58,1111122 
DISL,ioos:station:DISL:BSCA:1,2011-05-01T02:00:00Z,30.3288,-87.8293,1.637,3.57,1111122 
DISL,ioos:station:DISL:BSCA:1,2011-05-01T02:30:00Z,30.3288,-87.8293,1.629,3.63,1111122 
DISL,ioos:station:DISL:BSCA:1,2011-05-01T03:00:00Z,30.3288,-87.8293,1.641,3.67,1111122 
DISL,ioos:station:DISL:BSCA:1,2011-05-01T03:30:00Z,30.3288,-87.8293,1.642,3.61,1111122 
DISL,ioos:station:DISL:BSCA:1,2011-05-01T04:00:00Z,30.3288,-87.8293,1.662,3.62,1111122 
DISL,ioos:station:DISL:BSCA:1,2011-05-01T04:30:00Z,30.3288,-87.8293,1.687,3.65,1111122 
DISL,ioos:station:DISL:BSCA:1,2011-05-01T05:00:00Z,30.3288,-87.8293,1.715,3.71,1111122 
DISL,ioos:station:DISL:BSCA:1,2011-05-01T05:30:00Z,30.3288,-87.8293,1.751,3.79,1111122 
DISL,ioos:station:DISL:BSCA:1,2011-05-01T06:00:00Z,30.3288,-87.8293,1.803,3.81,1111122 
DISL,ioos:station:DISL:BSCA:1,2011-05-01T06:30:00Z,30.3288,-87.8293,1.849,3.83,1111122 
DISL,ioos:station:DISL:BSCA:1,2011-05-01T07:00:00Z,30.3288,-87.8293,1.887,3.83,1111122 
DISL,ioos:station:DISL:BSCA:1,2011-05-01T07:30:00Z,30.3288,-87.8293,1.921,3.84,1111122 
DISL,ioos:station:DISL:BSCA:1,2011-05-01T08:00:00Z,30.3288,-87.8293,1.949,3.87,1111122 
DISL,ioos:station:DISL:BSCA:1,2011-05-01T08:30:00Z,30.3288,-87.8293,1.964,3.88,1111122 
DISL,ioos:station:DISL:BSCA:1,2011-05-01T09:00:00Z,30.3288,-87.8293,1.957,3.89,1111122 
DISL,ioos:station:DISL:BSCA:1,2011-05-01T09:30:00Z,30.3288,-87.8293,1.954,3.9,1111122 
DISL,ioos:station:DISL:BSCA:1,2011-05-01T10:00:00Z,30.3288,-87.8293,1.944,3.91,1111122 
DISL,ioos:station:DISL:BSCA:1,2011-05-01T10:30:00Z,30.3288,-87.8293,1.957,3.91,1111122 
DISL,ioos:station:DISL:BSCA:1,2011-05-01T11:00:00Z,30.3288,-87.8293,1.974,3.93,1111122 
DISL,ioos:station:DISL:BSCA:1,2011-05-01T11:30:00Z,30.3288,-87.8293,2.016,3.94,1111122 
DISL,ioos:station:DISL:BSCA:1,2011-05-01T12:00:00Z,30.3288,-87.8293,2.034,3.95,1111122 
DISL,ioos:station:DISL:BSCA:1,2011-05-01T12:30:00Z,30.3288,-87.8293,2.053,3.96,1111122 
DISL,ioos:station:DISL:BSCA:1,2011-05-01T13:00:00Z,30.3288,-87.8293,2.082,3.96,1111122 
DISL,ioos:station:DISL:BSCA:1,2011-05-01T13:30:00Z,30.3288,-87.8293,2.088,3.95,1111122 
DISL,ioos:station:DISL:BSCA:1,2011-05-01T14:00:00Z,30.3288,-87.8293,2.102,3.95,1111122 
DISL,ioos:station:DISL:BSCA:1,2011-05-01T14:30:00Z,30.3288,-87.8293,2.112,3.95,1111122 
DISL,ioos:station:DISL:BSCA:1,2011-05-01T15:00:00Z,30.3288,-87.8293,2.12,3.95,1111122 
DISL,ioos:station:DISL:BSCA:1,2011-05-01T15:30:00Z,30.3288,-87.8293,2.104,3.95,1111122 
DISL,ioos:station:DISL:BSCA:1,2011-05-01T16:00:00Z,30.3288,-87.8293,2.088,3.95,1111122 
DISL,ioos:station:DISL:BSCA:1,2011-05-01T16:30:00Z,30.3288,-87.8293,2.065,3.95,1111122 
DISL,ioos:station:DISL:BSCA:1,2011-05-01T17:00:00Z,30.3288,-87.8293,2.032,3.95,1111122 
DISL,ioos:station:DISL:BSCA:1,2011-05-01T17:30:00Z,30.3288,-87.8293,2.008,3.95,1111122 
DISL,ioos:station:DISL:BSCA:1,2011-05-01T18:00:00Z,30.3288,-87.8293,1.972,3.96,1111122 
DISL,ioos:station:DISL:BSCA:1,2011-05-01T18:30:00Z,30.3288,-87.8293,1.937,3.95,1111122 
DISL,ioos:station:DISL:BSCA:1,2011-05-01T19:00:00Z,30.3288,-87.8293,1.891,3.96,1111122 
DISL,ioos:station:DISL:BSCA:1,2011-05-01T19:30:00Z,30.3288,-87.8293,1.859,3.98,1111122 
DISL,ioos:station:DISL:BSCA:1,2011-05-01T20:00:00Z,30.3288,-87.8293,1.82,4.01,1111122 
DISL,ioos:station:DISL:BSCA:1,2011-05-01T20:30:00Z,30.3288,-87.8293,1.79,4.02,1111122 
DISL,ioos:station:DISL:BSCA:1,2011-05-01T21:00:00Z,30.3288,-87.8293,1.753,4.02,1111122 
DISL,ioos:station:DISL:BSCA:1,2011-05-01T21:30:00Z,30.3288,-87.8293,1.713,4.01,1111122 
DISL,ioos:station:DISL:BSCA:1,2011-05-01T22:00:00Z,30.3288,-87.8293,1.694,4.01,1111122 
DISL,ioos:station:DISL:BSCA:1,2011-05-01T22:30:00Z,30.3288,-87.8293,1.661,4.08,1111122 
DISL,ioos:station:DISL:BSCA:1,2011-05-01T23:00:00Z,30.3288,-87.8293,1.635,4.12,1111122 
DISL,ioos:station:DISL:BSCA:1,2011-05-01T23:30:00Z,30.3288,-87.8293,1.628,4.02,1111122 
DISL,ioos:station:DISL:BSCA:1,2011-05-02T00:00:00Z,30.3288,-87.8293,1.625,3.98,1111122 
DISL,ioos:station:DISL:BSCA:1,2011-05-02T00:30:00Z,30.3288,-87.8293,1.653,3.99,1111122 
DISL,ioos:station:DISL:BSCA:1,2011-05-02T01:00:00Z,30.3288,-87.8293,1.675,3.95,1111122 
DISL,ioos:station:DISL:BSCA:1,2011-05-02T01:30:00Z,30.3288,-87.8293,1.714,3.93,1111122 
DISL,ioos:station:DISL:BSCA:1,2011-05-02T02:00:00Z,30.3288,-87.8293,1.737,3.91,1111122 
DISL,ioos:station:DISL:BSCA:1,2011-05-02T02:30:00Z,30.3288,-87.8293,1.758,3.92,1111122 
DISL,ioos:station:DISL:BSCA:1,2011-05-02T03:00:00Z,30.3288,-87.8293,1.777,3.93,1111122 
DISL,ioos:station:DISL:BSCA:1,2011-05-02T03:30:00Z,30.3288,-87.8293,1.78,3.93,1111122 
DISL,ioos:station:DISL:BSCA:1,2011-05-02T04:00:00Z,30.3288,-87.8293,1.787,3.94,1111122 
DISL,ioos:station:DISL:BSCA:1,2011-05-02T04:30:00Z,30.3288,-87.8293,1.784,3.95,1111122 
DISL,ioos:station:DISL:BSCA:1,2011-05-02T05:00:00Z,30.3288,-87.8293,1.808,3.95,1111122 
DISL,ioos:station:DISL:BSCA:1,2011-05-02T05:30:00Z,30.3288,-87.8293,1.849,3.93,1111122 
DISL,ioos:station:DISL:BSCA:1,2011-05-02T06:00:00Z,30.3288,-87.8293,1.878,3.93,1111122 
DISL,ioos:station:DISL:BSCA:1,2011-05-02T06:30:00Z,30.3288,-87.8293,1.929,3.92,1111122 
DISL,ioos:station:DISL:BSCA:1,2011-05-02T07:00:00Z,30.3288,-87.8293,1.972,3.92,1111122 
DISL,ioos:station:DISL:BSCA:1,2011-05-02T07:30:00Z,30.3288,-87.8293,2.022,3.76,1111122 
DISL,ioos:station:DISL:BSCA:1,2011-05-02T08:00:00Z,30.3288,-87.8293,2.06,3.63,1111122 
DISL,ioos:station:DISL:BSCA:1,2011-05-02T08:30:00Z,30.3288,-87.8293,2.077,3.53,1111122 
DISL,ioos:station:DISL:BSCA:1,2011-05-02T09:00:00Z,30.3288,-87.8293,2.106,3.39,1111122 
DISL,ioos:station:DISL:BSCA:1,2011-05-02T09:30:00Z,30.3288,-87.8293,2.109,3.38,1111122 
DISL,ioos:station:DISL:BSCA:1,2011-05-02T10:00:00Z,30.3288,-87.8293,2.129,3.53,1111122 
DISL,ioos:station:DISL:BSCA:1,2011-05-02T10:30:00Z,30.3288,-87.8293,2.134,3.56,1111122 
DISL,ioos:station:DISL:BSCA:1,2011-05-02T11:00:00Z,30.3288,-87.8293,2.14,3.74,1111122 
DISL,ioos:station:DISL:BSCA:1,2011-05-02T11:30:00Z,30.3288,-87.8293,2.139,3.81,1111122 
DISL,ioos:station:DISL:BSCA:1,2011-05-02T12:00:00Z,30.3288,-87.8293,2.138,3.81,1111122 
DISL,ioos:station:DISL:BSCA:1,2011-05-02T12:30:00Z,30.3288,-87.8293,2.136,3.77,1111122 
DISL,ioos:station:DISL:BSCA:1,2011-05-02T13:00:00Z,30.3288,-87.8293,2.143,3.78,1111122 
DISL,ioos:station:DISL:BSCA:1,2011-05-02T13:30:00Z,30.3288,-87.8293,2.161,3.78,1111122 
DISL,ioos:station:DISL:BSCA:1,2011-05-02T14:00:00Z,30.3288,-87.8293,2.175,3.78,1111122 
DISL,ioos:station:DISL:BSCA:1,2011-05-02T14:30:00Z,30.3288,-87.8293,2.173,3.55,1111122 
DISL,ioos:station:DISL:BSCA:1,2011-05-02T15:00:00Z,30.3288,-87.8293,2.167,3.44,1111122 
DISL,ioos:station:DISL:BSCA:1,2011-05-02T15:30:00Z,30.3288,-87.8293,2.138,3.48,1111122 
DISL,ioos:station:DISL:BSCA:1,2011-05-02T16:00:00Z,30.3288,-87.8293,2.114,3.32,1111122 
DISL,ioos:station:DISL:BSCA:1,2011-05-02T16:30:00Z,30.3288,-87.8293,2.081,2.9,1111122 
DISL,ioos:station:DISL:BSCA:1,2011-05-02T17:00:00Z,30.3288,-87.8293,2.058,2.83,1111122 
DISL,ioos:station:DISL:BSCA:1,2011-05-02T17:30:00Z,30.3288,-87.8293,2.036,2.8,1111122 
DISL,ioos:station:DISL:BSCA:1,2011-05-02T18:00:00Z,30.3288,-87.8293,2.015,2.8,1111122 
DISL,ioos:station:DISL:BSCA:1,2011-05-02T18:30:00Z,30.3288,-87.8293,1.994,2.74,1111122 
DISL,ioos:station:DISL:BSCA:1,2011-05-02T19:00:00Z,30.3288,-87.8293,1.975,2.67,1111122 
DISL,ioos:station:DISL:BSCA:1,2011-05-02T19:30:00Z,30.3288,-87.8293,1.942,2.64,1111122 
DISL,ioos:station:DISL:BSCA:1,2011-05-02T20:00:00Z,30.3288,-87.8293,1.902,2.7,1111122 
DISL,ioos:station:DISL:BSCA:1,2011-05-02T20:30:00Z,30.3288,-87.8293,1.865,2.8,1111122 
DISL,ioos:station:DISL:BSCA:1,2011-05-02T21:00:00Z,30.3288,-87.8293,1.832,2.86,1111122 
DISL,ioos:station:DISL:BSCA:1,2011-05-02T21:30:00Z,30.3288,-87.8293,1.793,2.81,1111122 
DISL,ioos:station:DISL:BSCA:1,2011-05-02T22:00:00Z,30.3288,-87.8293,1.771,2.82,1111122 
DISL,ioos:station:DISL:BSCA:1,2011-05-02T22:30:00Z,30.3288,-87.8293,1.739,2.92,1111122 
DISL,ioos:station:DISL:BSCA:1,2011-05-02T23:00:00Z,30.3288,-87.8293,1.712,2.99,1111122 
DISL,ioos:station:DISL:BSCA:1,2011-05-02T23:30:00Z,30.3288,-87.8293,1.683,2.94,1111122 
DISL,ioos:station:DISL:BSCA:1,2011-05-03T00:00:00Z,30.3288,-87.8293,1.653,2.88,1111122 
DISL,ioos:station:DISL:BSCA:1,2011-05-03T00:30:00Z,30.3288,-87.8293,1.642,2.95,1111122 
DISL,ioos:station:DISL:BSCA:1,2011-05-03T01:00:00Z,30.3288,-87.8293,1.644,2.98,1111122 
DISL,ioos:station:DISL:BSCA:1,2011-05-03T01:30:00Z,30.3288,-87.8293,1.639,2.73,1111122 
DISL,ioos:station:DISL:BSCA:1,2011-05-03T02:00:00Z,30.3288,-87.8293,1.642,2.65,1111122 
DISL,ioos:station:DISL:BSCA:1,2011-05-03T02:30:00Z,30.3288,-87.8293,1.637,2.68,1111122 
DISL,ioos:station:DISL:BSCA:1,2011-05-03T03:00:00Z,30.3288,-87.8293,1.665,2.6,1111122 
DISL,ioos:station:DISL:BSCA:1,2011-05-03T03:30:00Z,30.3288,-87.8293,1.673,2.53,1111122 
DISL,ioos:station:DISL:BSCA:1,2011-05-03T04:00:00Z,30.3288,-87.8293,1.687,2.5,1111122 
DISL,ioos:station:DISL:BSCA:1,2011-05-03T04:30:00Z,30.3288,-87.8293,1.702,2.4,1111122 
DISL,ioos:station:DISL:BSCA:1,2011-05-03T05:00:00Z,30.3288,-87.8293,1.718,2.41,1111122 
DISL,ioos:station:DISL:BSCA:1,2011-05-03T05:30:00Z,30.3288,-87.8293,1.737,2.33,1111122 
DISL,ioos:station:DISL:BSCA:1,2011-05-03T06:00:00Z,30.3288,-87.8293,1.761,2.31,1111122 
DISL,ioos:station:DISL:BSCA:1,2011-05-03T06:30:00Z,30.3288,-87.8293,1.798,2.23,1111122 
DISL,ioos:station:DISL:BSCA:1,2011-05-03T07:00:00Z,30.3288,-87.8293,1.833,2.27,1111122 
DISL,ioos:station:DISL:BSCA:1,2011-05-03T07:30:00Z,30.3288,-87.8293,1.864,1.96,1111122 
DISL,ioos:station:DISL:BSCA:1,2011-05-03T08:00:00Z,30.3288,-87.8293,1.904,1.86,1111122 
DISL,ioos:station:DISL:BSCA:1,2011-05-03T08:30:00Z,30.3288,-87.8293,1.926,2.28,1111122 
DISL,ioos:station:DISL:BSCA:1,2011-05-03T09:00:00Z,30.3288,-87.8293,1.95,2.31,1111122 
DISL,ioos:station:DISL:BSCA:1,2011-05-03T09:30:00Z,30.3288,-87.8293,1.967,2.34,1111122 
DISL,ioos:station:DISL:BSCA:1,2011-05-03T10:00:00Z,30.3288,-87.8293,1.991,2.25,1111122 
DISL,ioos:station:DISL:BSCA:1,2011-05-03T10:30:00Z,30.3288,-87.8293,1.997,2.72,1111122 
DISL,ioos:station:DISL:BSCA:1,2011-05-03T11:00:00Z,30.3288,-87.8293,2.047,2.4,1111122 
DISL,ioos:station:DISL:BSCA:1,2011-05-03T11:30:00Z,30.3288,-87.8293,2.072,2.94,1111122 
DISL,ioos:station:DISL:BSCA:1,2011-05-03T12:00:00Z,30.3288,-87.8293,2.103,2.59,1111122 
DISL,ioos:station:DISL:BSCA:1,2011-05-03T12:30:00Z,30.3288,-87.8293,2.128,2.56,1111122 
DISL,ioos:station:DISL:BSCA:1,2011-05-03T13:00:00Z,30.3288,-87.8293,2.157,2.14,1111122 
DISL,ioos:station:DISL:BSCA:1,2011-05-03T13:30:00Z,30.3288,-87.8293,2.187,1.78,1111122 
DISL,ioos:station:DISL:BSCA:1,2011-05-03T14:00:00Z,30.3288,-87.8293,2.203,1.67,1111122 
DISL,ioos:station:DISL:BSCA:1,2011-05-03T14:30:00Z,30.3288,-87.8293,2.217,1.37,1111122 
DISL,ioos:station:DISL:BSCA:1,2011-05-03T15:00:00Z,30.3288,-87.8293,2.24,1.53,1111122 
DISL,ioos:station:DISL:BSCA:1,2011-05-03T15:30:00Z,30.3288,-87.8293,2.253,1.31,1111122 
DISL,ioos:station:DISL:BSCA:1,2011-05-03T16:00:00Z,30.3288,-87.8293,2.262,1.17,1111122 
DISL,ioos:station:DISL:BSCA:1,2011-05-03T16:30:00Z,30.3288,-87.8293,2.246,1.1,1111122 
DISL,ioos:station:DISL:BSCA:1,2011-05-03T17:00:00Z,30.3288,-87.8293,2.233,1.12,1111122 
DISL,ioos:station:DISL:BSCA:1,2011-05-03T17:30:00Z,30.3288,-87.8293,2.206,1.17,1111122 
DISL,ioos:station:DISL:BSCA:1,2011-05-03T18:00:00Z,30.3288,-87.8293,2.18,1.23,1111122 
DISL,ioos:station:DISL:BSCA:1,2011-05-03T18:30:00Z,30.3288,-87.8293,2.166,1.24,1111122 
DISL,ioos:station:DISL:BSCA:1,2011-05-03T19:00:00Z,30.3288,-87.8293,2.143,1.25,1111122 
DISL,ioos:station:DISL:BSCA:1,2011-05-03T19:30:00Z,30.3288,-87.8293,2.198,1.65,1111122 
DISL,ioos:station:DISL:BSCA:1,2011-05-03T20:00:00Z,30.3288,-87.8293,2.179,1.34,1111122 
DISL,ioos:station:DISL:BSCA:1,2011-05-03T20:30:00Z,30.3288,-87.8293,2.233,1.31,1111122 
DISL,ioos:station:DISL:BSCA:1,2011-05-03T21:00:00Z,30.3288,-87.8293,2.103,1.49,1111122 
DISL,ioos:station:DISL:BSCA:1,2011-05-03T21:30:00Z,30.3288,-87.8293,1.979,1.51,1111122 
DISL,ioos:station:DISL:BSCA:1,2011-05-03T22:00:00Z,30.3288,-87.8293,1.904,1.52,1111122 
DISL,ioos:station:DISL:BSCA:1,2011-05-03T22:30:00Z,30.3288,-87.8293,1.818,1.57,1111122 
DISL,ioos:station:DISL:BSCA:1,2011-05-03T23:00:00Z,30.3288,-87.8293,1.85,1.6,1111122 
DISL,ioos:station:DISL:BSCA:1,2011-05-03T23:30:00Z,30.3288,-87.8293,1.831,1.61,1111122 
DISL,ioos:station:DISL:BSCA:1,2011-05-04T00:00:00Z,30.3288,-87.8293,1.798,1.61,1111122 
DISL,ioos:station:DISL:BSCA:1,2011-05-04T00:30:00Z,30.3288,-87.8293,1.798,1.76,1111122 
DISL,ioos:station:DISL:BSCA:1,2011-05-04T01:00:00Z,30.3288,-87.8293,1.728,1.93,1111122 
DISL,ioos:station:DISL:BSCA:1,2011-05-04T01:30:00Z,30.3288,-87.8293,1.717,2.43,1111122 
DISL,ioos:station:DISL:BSCA:1,2011-05-04T02:00:00Z,30.3288,-87.8293,1.682,2.92,1111122 
DISL,ioos:station:DISL:BSCA:1,2011-05-04T02:30:00Z,30.3288,-87.8293,1.622,3.23,1111122 
DISL,ioos:station:DISL:BSCA:1,2011-05-04T03:00:00Z,30.3288,-87.8293,1.592,3.51,1111122 
DISL,ioos:station:DISL:BSCA:1,2011-05-04T03:30:00Z,30.3288,-87.8293,1.566,3.55,1111122 
DISL,ioos:station:DISL:BSCA:1,2011-05-04T04:00:00Z,30.3288,-87.8293,1.551,3.59,1111122 
DISL,ioos:station:DISL:BSCA:1,2011-05-04T04:30:00Z,30.3288,-87.8293,1.56,3.98,1111122 
DISL,ioos:station:DISL:BSCA:1,2011-05-04T05:00:00Z,30.3288,-87.8293,1.554,4.47,1111122 
DISL,ioos:station:DISL:BSCA:1,2011-05-04T05:30:00Z,30.3288,-87.8293,1.54,4.39,1111122 
DISL,ioos:station:DISL:BSCA:1,2011-05-04T06:00:00Z,30.3288,-87.8293,1.552,4.35,1111122 
DISL,ioos:station:DISL:BSCA:1,2011-05-04T06:30:00Z,30.3288,-87.8293,1.543,4.33,1111122 
DISL,ioos:station:DISL:BSCA:1,2011-05-04T07:00:00Z,30.3288,-87.8293,1.547,4.33,1111122 
DISL,ioos:station:DISL:BSCA:1,2011-05-04T07:30:00Z,30.3288,-87.8293,1.544,4.32,1111122 
DISL,ioos:station:DISL:BSCA:1,2011-05-04T08:00:00Z,30.3288,-87.8293,1.549,4.05,1111122 
DISL,ioos:station:DISL:BSCA:1,2011-05-04T08:30:00Z,30.3288,-87.8293,1.549,3.99,1111122 
DISL,ioos:station:DISL:BSCA:1,2011-05-04T09:00:00Z,30.3288,-87.8293,1.578,3.91,1111122 
DISL,ioos:station:DISL:BSCA:1,2011-05-04T09:30:00Z,30.3288,-87.8293,1.604,3.81,1111122 
DISL,ioos:station:DISL:BSCA:1,2011-05-04T10:00:00Z,30.3288,-87.8293,1.653,3.67,1111122 
DISL,ioos:station:DISL:BSCA:1,2011-05-04T10:30:00Z,30.3288,-87.8293,1.693,3.57,1111122 
DISL,ioos:station:DISL:BSCA:1,2011-05-04T11:00:00Z,30.3288,-87.8293,1.736,2.95,1111122 
DISL,ioos:station:DISL:BSCA:1,2011-05-04T11:30:00Z,30.3288,-87.8293,1.762,2.89,1111122 
DISL,ioos:station:DISL:BSCA:1,2011-05-04T12:00:00Z,30.3288,-87.8293,1.794,3.0,1111122 
DISL,ioos:station:DISL:BSCA:1,2011-05-04T12:30:00Z,30.3288,-87.8293,1.831,2.97,1111122 
DISL,ioos:station:DISL:BSCA:1,2011-05-04T13:00:00Z,30.3288,-87.8293,1.855,2.78,1111122 
DISL,ioos:station:DISL:BSCA:1,2011-05-04T13:30:00Z,30.3288,-87.8293,1.889,2.81,1111122 
DISL,ioos:station:DISL:BSCA:1,2011-05-04T14:00:00Z,30.3288,-87.8293,1.931,2.76,1111122 
DISL,ioos:station:DISL:BSCA:1,2011-05-04T14:30:00Z,30.3288,-87.8293,1.964,2.73,1111122 
DISL,ioos:station:DISL:BSCA:1,2011-05-04T15:00:00Z,30.3288,-87.8293,1.995,2.72,1111122 
DISL,ioos:station:DISL:BSCA:1,2011-05-04T15:30:00Z,30.3288,-87.8293,2.012,2.59,1111122 
DISL,ioos:station:DISL:BSCA:1,2011-05-04T16:00:00Z,30.3288,-87.8293,2.031,2.66,1111122 
DISL,ioos:station:DISL:BSCA:1,2011-05-04T16:30:00Z,30.3288,-87.8293,2.056,2.7,1111122 
DISL,ioos:station:DISL:BSCA:1,2011-05-04T17:00:00Z,30.3288,-87.8293,2.071,2.6,1111122 
DISL,ioos:station:DISL:BSCA:1,2011-05-04T17:30:00Z,30.3288,-87.8293,2.083,2.46,1111122 
DISL,ioos:station:DISL:BSCA:1,2011-05-04T18:00:00Z,30.3288,-87.8293,2.091,2.44,1111122 
DISL,ioos:station:DISL:BSCA:1,2011-05-04T18:30:00Z,30.3288,-87.8293,2.071,3.03,1111122 
DISL,ioos:station:DISL:BSCA:1,2011-05-04T19:00:00Z,30.3288,-87.8293,2.052,3.26,1111122 
DISL,ioos:station:DISL:BSCA:1,2011-05-04T19:30:00Z,30.3288,-87.8293,2.014,3.54,1111122 
DISL,ioos:station:DISL:BSCA:1,2011-05-04T20:00:00Z,30.3288,-87.8293,2.002,3.74,1111122 
DISL,ioos:station:DISL:BSCA:1,2011-05-04T20:30:00Z,30.3288,-87.8293,1.978,3.74,1111122 
DISL,ioos:station:DISL:BSCA:1,2011-05-04T21:00:00Z,30.3288,-87.8293,1.924,3.6,1111122 
DISL,ioos:station:DISL:BSCA:1,2011-05-04T21:30:00Z,30.3288,-87.8293,1.902,3.51,1111122 
DISL,ioos:station:DISL:BSCA:1,2011-05-04T22:00:00Z,30.3288,-87.8293,1.854,3.54,1111122 
DISL,ioos:station:DISL:BSCA:1,2011-05-04T22:30:00Z,30.3288,-87.8293,1.801,3.71,1111122 
DISL,ioos:station:DISL:BSCA:1,2011-05-04T23:00:00Z,30.3288,-87.8293,1.753,3.87,1111122 
DISL,ioos:station:DISL:BSCA:1,2011-05-04T23:30:00Z,30.3288,-87.8293,1.702,3.86,1111122 
DISL,ioos:station:DISL:BSCA:1,2011-05-05T00:00:00Z,30.3288,-87.8293,1.675,3.81,1111122 
DISL,ioos:station:DISL:BSCA:1,2011-05-05T00:30:00Z,30.3288,-87.8293,1.646,3.84,1111122 
DISL,ioos:station:DISL:BSCA:1,2011-05-05T01:00:00Z,30.3288,-87.8293,1.603,4.1,1111122 
DISL,ioos:station:DISL:BSCA:1,2011-05-05T01:30:00Z,30.3288,-87.8293,1.584,4.08,1111122 
DISL,ioos:station:DISL:BSCA:1,2011-05-05T02:00:00Z,30.3288,-87.8293,1.549,3.84,1111122 
DISL,ioos:station:DISL:BSCA:1,2011-05-05T02:30:00Z,30.3288,-87.8293,1.526,3.84,1111122 
DISL,ioos:station:DISL:BSCA:1,2011-05-05T03:00:00Z,30.3288,-87.8293,1.504,3.88,1111122 
DISL,ioos:station:DISL:BSCA:1,2011-05-05T03:30:00Z,30.3288,-87.8293,1.483,3.9,1111122 
DISL,ioos:station:DISL:BSCA:1,2011-05-05T04:00:00Z,30.3288,-87.8293,1.465,3.89,1111122 
DISL,ioos:station:DISL:BSCA:1,2011-05-05T04:30:00Z,30.3288,-87.8293,1.467,3.88,1111122 
DISL,ioos:station:DISL:BSCA:1,2011-05-05T05:00:00Z,30.3288,-87.8293,1.478,3.9,1111122 
DISL,ioos:station:DISL:BSCA:1,2011-05-05T05:30:00Z,30.3288,-87.8293,1.473,3.81,1111122 
DISL,ioos:station:DISL:BSCA:1,2011-05-05T06:00:00Z,30.3288,-87.8293,1.497,3.59,1111122 
DISL,ioos:station:DISL:BSCA:1,2011-05-05T06:30:00Z,30.3288,-87.8293,1.508,3.43,1111122 
DISL,ioos:station:DISL:BSCA:1,2011-05-05T07:00:00Z,30.3288,-87.8293,1.53,3.31,1111122 
DISL,ioos:station:DISL:BSCA:1,2011-05-05T07:30:00Z,30.3288,-87.8293,1.554,3.2,1111122 
DISL,ioos:station:DISL:BSCA:1,2011-05-05T08:00:00Z,30.3288,-87.8293,1.569,3.16,1111122 
DISL,ioos:station:DISL:BSCA:1,2011-05-05T08:30:00Z,30.3288,-87.8293,1.583,3.11,1111122 
DISL,ioos:station:DISL:BSCA:1,2011-05-05T09:00:00Z,30.3288,-87.8293,1.593,3.06,1111122 
DISL,ioos:station:DISL:BSCA:1,2011-05-05T09:30:00Z,30.3288,-87.8293,1.608,3.04,1111122 
DISL,ioos:station:DISL:BSCA:1,2011-05-05T10:00:00Z,30.3288,-87.8293,1.617,3.03,1111122 
DISL,ioos:station:DISL:BSCA:1,2011-05-05T10:30:00Z,30.3288,-87.8293,1.637,3.05,1111122 
DISL,ioos:station:DISL:BSCA:1,2011-05-05T11:00:00Z,30.3288,-87.8293,1.662,2.94,1111122 
DISL,ioos:station:DISL:BSCA:1,2011-05-05T11:30:00Z,30.3288,-87.8293,1.68,2.8,1111122 
DISL,ioos:station:DISL:BSCA:1,2011-05-05T12:00:00Z,30.3288,-87.8293,1.698,2.68,1111122 
DISL,ioos:station:DISL:BSCA:1,2011-05-05T12:30:00Z,30.3288,-87.8293,1.732,2.53,1111122 
DISL,ioos:station:DISL:BSCA:1,2011-05-05T13:00:00Z,30.3288,-87.8293,1.766,2.33,1111122 
DISL,ioos:station:DISL:BSCA:1,2011-05-05T13:30:00Z,30.3288,-87.8293,1.812,2.17,1111122 
DISL,ioos:station:DISL:BSCA:1,2011-05-05T14:00:00Z,30.3288,-87.8293,1.854,2.14,1111122 
DISL,ioos:station:DISL:BSCA:1,2011-05-05T14:30:00Z,30.3288,-87.8293,1.889,2.11,1111122 
DISL,ioos:station:DISL:BSCA:1,2011-05-05T15:00:00Z,30.3288,-87.8293,1.936,2.13,1111122 
DISL,ioos:station:DISL:BSCA:1,2011-05-05T15:30:00Z,30.3288,-87.8293,1.969,2.17,1111122 
DISL,ioos:station:DISL:BSCA:1,2011-05-05T16:00:00Z,30.3288,-87.8293,2.01,2.21,1111122 
DISL,ioos:station:DISL:BSCA:1,2011-05-05T16:30:00Z,30.3288,-87.8293,2.051,2.19,1111122 
DISL,ioos:station:DISL:BSCA:1,2011-05-05T17:00:00Z,30.3288,-87.8293,2.078,2.16,1111122 
DISL,ioos:station:DISL:BSCA:1,2011-05-05T17:30:00Z,30.3288,-87.8293,2.112,2.2,1111122 
DISL,ioos:station:DISL:BSCA:1,2011-05-05T18:00:00Z,30.3288,-87.8293,2.117,2.19,1111122 
DISL,ioos:station:DISL:BSCA:1,2011-05-05T18:30:00Z,30.3288,-87.8293,2.135,2.18,1111122 
DISL,ioos:station:DISL:BSCA:1,2011-05-05T19:00:00Z,30.3288,-87.8293,2.134,2.19,1111122 
DISL,ioos:station:DISL:BSCA:1,2011-05-05T19:30:00Z,30.3288,-87.8293,2.114,2.2,1111122 
DISL,ioos:station:DISL:BSCA:1,2011-05-05T20:00:00Z,30.3288,-87.8293,2.091,2.19,1111122 
DISL,ioos:station:DISL:BSCA:1,2011-05-05T20:30:00Z,30.3288,-87.8293,2.044,2.19,1111122 
DISL,ioos:station:DISL:BSCA:1,2011-05-05T21:00:00Z,30.3288,-87.8293,2.001,2.23,1111122 
DISL,ioos:station:DISL:BSCA:1,2011-05-05T21:30:00Z,30.3288,-87.8293,1.961,2.25,1111122 
DISL,ioos:station:DISL:BSCA:1,2011-05-05T22:00:00Z,30.3288,-87.8293,1.909,2.36,1111122 
DISL,ioos:station:DISL:BSCA:1,2011-05-05T22:30:00Z,30.3288,-87.8293,1.872,2.3,1111122 
DISL,ioos:station:DISL:BSCA:1,2011-05-05T23:00:00Z,30.3288,-87.8293,1.826,2.68,1111122 
DISL,ioos:station:DISL:BSCA:1,2011-05-05T23:30:00Z,30.3288,-87.8293,1.778,2.71,1111122 
DISL,ioos:station:DISL:BSCA:1,2011-05-06T00:00:00Z,30.3288,-87.8293,1.738,2.66,1111122 
DISL,ioos:station:DISL:BSCA:1,2011-05-06T00:30:00Z,30.3288,-87.8293,1.702,2.61,1111122 
DISL,ioos:station:DISL:BSCA:1,2011-05-06T01:00:00Z,30.3288,-87.8293,1.673,2.53,1111122 
DISL,ioos:station:DISL:BSCA:1,2011-05-06T01:30:00Z,30.3288,-87.8293,1.652,2.54,1111122 
DISL,ioos:station:DISL:BSCA:1,2011-05-06T02:00:00Z,30.3288,-87.8293,1.638,2.2,1111122 
DISL,ioos:station:DISL:BSCA:1,2011-05-06T02:30:00Z,30.3288,-87.8293,1.631,2.01,1111122 
DISL,ioos:station:DISL:BSCA:1,2011-05-06T03:00:00Z,30.3288,-87.8293,1.618,1.97,1111122 
DISL,ioos:station:DISL:BSCA:1,2011-05-06T03:30:00Z,30.3288,-87.8293,1.604,1.91,1111122 
DISL,ioos:station:DISL:BSCA:1,2011-05-06T04:00:00Z,30.3288,-87.8293,1.598,1.9,1111122 
DISL,ioos:station:DISL:BSCA:1,2011-05-06T04:30:00Z,30.3288,-87.8293,1.585,1.89,1111122 
DISL,ioos:station:DISL:BSCA:1,2011-05-06T05:00:00Z,30.3288,-87.8293,1.579,1.89,1111122 
DISL,ioos:station:DISL:BSCA:1,2011-05-06T05:30:00Z,30.3288,-87.8293,1.571,1.89,1111122 
DISL,ioos:station:DISL:BSCA:1,2011-05-06T06:00:00Z,30.3288,-87.8293,1.568,1.9,1111122 
DISL,ioos:station:DISL:BSCA:1,2011-05-06T06:30:00Z,30.3288,-87.8293,1.574,1.89,1111122 
DISL,ioos:station:DISL:BSCA:1,2011-05-06T07:00:00Z,30.3288,-87.8293,1.598,1.9,1111122 
DISL,ioos:station:DISL:BSCA:1,2011-05-06T07:30:00Z,30.3288,-87.8293,1.616,1.9,1111122 
DISL,ioos:station:DISL:BSCA:1,2011-05-06T08:00:00Z,30.3288,-87.8293,1.643,1.91,1111122 
DISL,ioos:station:DISL:BSCA:1,2011-05-06T08:30:00Z,30.3288,-87.8293,1.668,1.96,1111122 
DISL,ioos:station:DISL:BSCA:1,2011-05-06T09:00:00Z,30.3288,-87.8293,1.696,1.94,1111122 
DISL,ioos:station:DISL:BSCA:1,2011-05-06T09:30:00Z,30.3288,-87.8293,1.706,1.93,1111122 
DISL,ioos:station:DISL:BSCA:1,2011-05-06T10:00:00Z,30.3288,-87.8293,1.728,1.93,1111122 
DISL,ioos:station:DISL:BSCA:1,2011-05-06T10:30:00Z,30.3288,-87.8293,1.744,1.93,1111122 
DISL,ioos:station:DISL:BSCA:1,2011-05-06T11:00:00Z,30.3288,-87.8293,1.772,1.94,1111122 
DISL,ioos:station:DISL:BSCA:1,2011-05-06T11:30:00Z,30.3288,-87.8293,1.811,1.94,1111122 
DISL,ioos:station:DISL:BSCA:1,2011-05-06T12:00:00Z,30.3288,-87.8293,1.849,1.96,1111122 
DISL,ioos:station:DISL:BSCA:1,2011-05-06T12:30:00Z,30.3288,-87.8293,1.891,1.96,1111122 
DISL,ioos:station:DISL:BSCA:1,2011-05-06T13:30:00Z,30.3288,-87.8293,1.955,2.13,1111122 
DISL,ioos:station:DISL:BSCA:1,2011-05-06T14:00:00Z,30.3288,-87.8293,1.984,2.26,1111122 
DISL,ioos:station:DISL:BSCA:1,2011-05-06T14:30:00Z,30.3288,-87.8293,2.01,2.23,1111122 
DISL,ioos:station:DISL:BSCA:1,2011-05-06T15:00:00Z,30.3288,-87.8293,2.045,2.41,1111122 
DISL,ioos:station:DISL:BSCA:1,2011-05-06T15:30:00Z,30.3288,-87.8293,2.061,2.66,1111122 
DISL,ioos:station:DISL:BSCA:1,2011-05-06T16:00:00Z,30.3288,-87.8293,2.088,2.82,1111122 